GW2464 Weather Reports


Display with metric or nautical units.
time (UTC)temp
F
wind
direction
speed
MPH
gust
MPH
rain 1hr
in
rain 24hr
in
rain mn
in
humidity
%
barometer
mb
20260510063612 46 352 0.0 0.0 0.00 0.00 0.00 99 1010.9
20260510063110 46 2 0.0 0.0 0.00 0.00 0.00 99 1011.0
20260510062605 46 1 0.0 0.0 0.00 0.00 0.00 99 1011.0
20260510062101 46 357 0.0 1.0 0.00 0.00 0.00 99 1011.1
20260510061557 46 356 0.0 0.0 0.00 0.00 0.00 99 1011.1
20260510061055 46 9 0.0 0.0 0.00 0.00 0.00 99 1011.2
20260510060550 45 10 0.0 0.0 0.00 0.00 0.00 99 1011.1
20260510060047 45 7 1.0 1.0 0.00 0.00 0.00 99 1011.2
20260510055543 45 7 0.0 0.0 0.00 0.00 0.00 99 1011.3
20260510055042 44 359 0.0 0.0 0.00 0.00 0.00 99 1011.3
20260510054537 44 351 1.0 1.0 0.00 0.00 0.00 99 1011.6
20260510054032 44 16 1.0 1.0 0.00 0.00 0.00 99 1011.4
20260510053527 44 352 1.0 1.0 0.00 0.00 0.00 99 1011.6
20260510053024 44 7 0.0 0.0 0.00 0.00 0.00 99 1011.6
20260510052520 43 75 2.0 2.0 0.00 0.00 0.00 99 1011.4
20260510052016 42 355 0.0 0.0 0.00 0.00 0.00 99 1011.4
20260510051512 42 4 0.0 0.0 0.00 0.00 0.00 99 1011.4
20260510051009 41 350 1.0 1.0 0.00 0.00 0.00 99 1011.2
20260510050506 41 352 0.0 1.0 0.00 0.00 0.00 99 1010.7
20260510050003 41 352 0.0 0.0 0.00 0.00 0.00 99 1010.6
20260510045500 41 352 1.0 1.0 0.00 0.00 0.00 99 1010.3
20260510044956 41 351 0.0 0.0 0.00 0.00 0.00 99 1010.3
20260510044453 41 0 0.0 0.0 0.00 0.00 0.00 99 1010.3
20260510043950 41 354 0.0 0.0 0.00 0.00 0.00 99 1010.6
20260510043445 41 354 0.0 0.0 0.00 0.00 0.00 99 1010.7
20260510042944 41 352 0.0 0.0 0.00 0.00 0.00 99 1010.6
20260510042440 42 352 1.0 1.0 0.00 0.00 0.00 99 1010.6
20260510041930 42 10 1.0 1.0 0.00 0.00 0.00 99 1010.6
20260510041427 42 348 0.0 0.0 0.00 0.00 0.00 99 1010.4
20260510040925 42 18 1.0 1.0 0.00 0.00 0.00 99 1010.6
20260510040421 41 357 0.0 0.0 0.00 0.00 0.00 99 1010.7
20260510035916 42 6 1.0 1.0 0.00 0.84 0.84 99 1010.6
20260510035413 41 10 0.0 1.0 0.00 0.84 0.84 99 1010.0
20260510034908 42 356 0.0 1.0 0.00 0.84 0.84 99 1010.1
20260510034407 43 10 1.0 1.0 0.00 0.84 0.84 99 1009.8
20260510033902 43 10 0.0 0.0 0.00 0.84 0.84 99 1009.9
20260510033359 42 16 1.0 1.0 0.00 0.84 0.84 99 1009.7
20260510032855 42 5 1.0 1.0 0.00 0.84 0.84 99 1009.6
20260510032353 42 8 0.0 1.0 0.00 0.84 0.84 99 1010.1
20260510031848 43 5 1.0 1.0 0.00 0.84 0.84 99 1009.8
20260510031344 43 3 1.0 1.0 0.00 0.84 0.84 99 1010.0
20260510030843 43 10 0.0 1.0 0.00 0.84 0.84 99 1009.8
20260510030340 43 2 0.0 1.0 0.00 0.84 0.84 99 1010.2
20260510025838 43 1 0.0 0.0 0.00 0.84 0.84 99 1010.0
20260510025335 43 5 0.0 1.0 0.00 0.84 0.84 99 1010.1
20260510024832 42 359 0.0 0.0 0.00 0.84 0.84 99 1010.0
20260510024329 43 356 0.0 0.0 0.00 0.84 0.84 99 1009.8
20260510023825 43 4 0.0 1.0 0.00 0.84 0.84 99 1010.0
20260510023321 43 4 1.0 1.0 0.00 0.84 0.84 99 1009.9
20260510022819 43 354 0.0 1.0 0.00 0.84 0.84 99 1009.9
20260510022317 44 1 1.0 1.0 0.00 0.84 0.84 99 1009.8
20260510021817 43 14 1.0 1.0 0.00 0.84 0.84 99 1009.9
20260510021315 44 4 1.0 1.0 0.00 0.84 0.84 99 1010.0
20260510020811 43 5 1.0 1.0 0.00 0.84 0.84 99 1009.9
20260510020306 44 10 1.0 1.0 0.00 0.84 0.84 99 1010.1
20260510015802 44 355 0.0 0.0 0.00 0.84 0.84 99 1009.8
20260510015258 44 8 0.0 1.0 0.00 0.84 0.84 99 1009.6
20260510014753 44 5 1.0 1.0 0.00 0.84 0.84 99 1009.7
20260510014251 44 357 1.0 1.0 0.00 0.84 0.84 99 1009.9
20260510013747 44 356 0.0 0.0 0.00 0.84 0.84 99 1009.7
20260510013242 44 356 0.0 0.0 0.00 0.84 0.84 99 1009.8
20260510012737 45 2 0.0 0.0 0.00 0.84 0.84 99 1009.8
20260510012232 45 9 0.0 0.0 0.00 0.84 0.84 99 1009.7
20260510011727 45 15 1.0 1.0 0.00 0.84 0.84 99 1009.7
20260510011222 45 7 1.0 1.0 0.00 0.84 0.84 99 1009.7
20260510010719 46 359 1.0 1.0 0.00 0.84 0.84 99 1009.5
20260510010216 47 5 0.0 0.0 0.00 0.84 0.84 99 1009.4
20260510005713 47 9 0.0 1.0 0.00 0.84 0.84 99 1009.5
20260510005209 46 15 1.0 1.0 0.00 0.84 0.84 99 1009.3
20260510004707 47 0 0.0 0.0 0.00 0.84 0.84 99 1009.3
20260510004205 47 2 0.0 1.0 0.00 0.84 0.84 99 1009.2
20260510003702 48 353 0.0 1.0 0.00 0.84 0.84 99 1009.3
20260510003158 48 353 0.0 0.0 0.00 0.84 0.84 99 1009.3
20260510002657 49 357 0.0 0.0 0.00 0.84 0.84 99 1009.4
20260510002155 49 347 0.0 0.0 0.00 0.84 0.84 99 1009.1
20260510001652 49 343 0.0 0.0 0.00 0.84 0.84 99 1009.1
20260510001150 50 347 0.0 0.0 0.00 0.84 0.84 99 1009.1
20260510000651 50 331 1.0 1.0 0.00 0.84 0.84 99 1009.3
20260510000148 50 333 1.0 1.0 0.00 0.84 0.84 99 1008.9
20260509235645 50 336 1.0 1.0 0.00 0.84 0.84 99 1008.8
20260509235141 50 305 1.0 1.0 0.00 0.84 0.84 99 1008.6
20260509234637 50 309 1.0 1.0 0.00 0.84 0.84 99 1008.6
20260509234135 51 300 1.0 1.0 0.00 0.84 0.84 99 1008.4
20260509233633 51 298 1.0 2.0 0.00 0.84 0.84 99 1008.5
20260509233130 51 316 1.0 1.0 0.00 0.84 0.84 99 1008.5
20260509232626 51 264 1.0 2.0 0.00 0.84 0.84 99 1008.6
20260509232123 51 240 2.0 3.0 0.00 0.84 0.84 99 1008.7
20260509231619 51 272 1.0 2.0 0.00 0.84 0.84 99 1008.9
20260509231117 51 217 2.0 2.0 0.00 0.84 0.84 99 1008.7
20260509230614 51 256 4.0 5.0 0.00 0.84 0.84 99 1008.6
20260509230111 52 250 2.0 2.0 0.00 0.84 0.84 99 1008.4
20260509225607 52 202 2.0 2.0 0.00 0.84 0.84 99 1008.7
20260509225102 52 317 2.0 2.0 0.00 0.84 0.84 99 1008.6
20260509224557 52 247 2.0 2.0 0.00 0.84 0.84 98 1008.5
20260509224055 52 216 4.0 5.0 0.00 0.84 0.84 98 1008.2
20260509223552 52 244 3.0 3.0 0.00 0.84 0.84 98 1008.5
20260509223050 52 234 3.0 3.0 0.00 0.84 0.84 98 1008.1
20260509222545 52 192 3.0 3.0 0.00 0.84 0.84 99 1008.4
20260509222041 52 240 2.0 2.0 0.00 0.84 0.84 99 1008.6
20260509221537 53 291 1.0 1.0 0.00 0.84 0.84 99 1008.4
20260509221033 53 224 3.0 3.0 0.00 0.84 0.84 99 1008.5
20260509220529 53 268 3.0 3.0 0.00 0.84 0.84 99 1008.4
20260509220026 53 172 2.0 3.0 0.00 0.84 0.84 99 1008.7
20260509215521 52 154 1.0 2.0 0.00 0.84 0.84 99 1008.8
20260509215019 51 125 1.0 2.0 0.00 0.84 0.84 99 1009.0
20260509214516 51 293 3.0 3.0 0.00 0.84 0.84 99 1008.9
20260509214013 51 200 5.0 6.0 0.00 0.84 0.84 99 1009.2
20260509213509 51 191 3.0 3.0 0.00 0.84 0.84 99 1009.2
20260509213006 51 194 4.0 6.0 0.00 0.84 0.84 99 1009.0
20260509212503 52 236 3.0 3.0 0.00 0.84 0.84 99 1009.0
20260509212000 52 179 3.0 3.0 0.00 0.84 0.84 99 1009.0
20260509211455 52 215 5.0 5.0 0.00 0.84 0.84 98 1008.9
20260509210952 53 106 2.0 2.0 0.00 0.84 0.84 99 1009.1
20260509210449 51 285 1.0 1.0 0.00 0.84 0.84 99 1008.9
20260509205944 51 242 3.0 3.0 0.00 0.84 0.84 99 1009.1
20260509205439 51 290 3.0 3.0 0.00 0.84 0.84 99 1009.2
20260509204935 51 260 3.0 5.0 0.00 0.84 0.84 99 1009.1
20260509204432 51 180 4.0 5.0 0.00 0.84 0.84 99 1009.0
20260509203928 51 256 2.0 2.0 0.00 0.84 0.84 99 1009.2
20260509203424 51 244 3.0 5.0 0.00 0.84 0.84 99 1009.1
20260509202922 50 275 2.0 2.0 0.00 0.84 0.84 99 1009.2
20260509202418 50 101 1.0 1.0 0.00 0.84 0.84 99 1009.2
20260509201913 50 270 5.0 6.0 0.00 0.84 0.84 99 1009.3
20260509201408 50 228 5.0 7.0 0.00 0.84 0.84 99 1009.2
20260509200906 50 262 3.0 5.0 0.00 0.84 0.84 99 1009.4
20260509200405 50 272 6.0 7.0 0.00 0.84 0.84 99 1009.6
20260509195902 50 188 5.0 6.0 0.00 0.84 0.84 99 1009.3
20260509195402 50 146 3.0 3.0 0.00 0.84 0.84 99 1009.8
20260509194857 50 129 3.0 5.0 0.00 0.84 0.84 99 1009.8
20260509194353 50 9 2.0 2.0 0.00 0.84 0.84 99 1009.7
20260509193849 50 240 3.0 3.0 0.00 0.84 0.84 99 1009.7
20260509193344 50 161 3.0 3.0 0.00 0.84 0.84 99 1009.7
20260509192840 50 188 2.0 2.0 0.05 0.84 0.84 99 1009.7
20260509192336 50 180 1.0 2.0 0.05 0.84 0.84 99 1010.0
20260509191832 50 195 4.0 5.0 0.00 0.83 0.83 99 1009.8
20260509191328 50 250 4.0 5.0 0.00 0.83 0.83 99 1010.0
20260509190824 50 291 1.0 1.0 0.00 0.83 0.83 99 1009.8
20260509190321 50 230 3.0 3.0 0.00 0.83 0.83 99 1009.7
20260509185818 50 214 3.0 3.0 0.00 0.83 0.83 99 1010.0
20260509185309 50 293 2.0 2.0 0.07 0.83 0.83 99 1010.1
20260509184806 50 232 3.0 5.0 0.07 0.83 0.83 99 1009.9
20260509184304 50 261 2.0 3.0 0.00 0.82 0.82 99 1009.9
20260509183800 50 352 2.0 3.0 0.00 0.82 0.82 99 1009.8
20260509183255 50 299 1.0 1.0 0.00 0.82 0.82 99 1009.9
20260509182751 50 255 2.0 3.0 0.05 0.82 0.82 99 1010.1
20260509182249 50 155 2.0 2.0 0.05 0.82 0.82 99 1009.9
20260509181746 50 211 3.0 3.0 0.00 0.81 0.81 99 1009.9
20260509181243 50 172 3.0 5.0 0.00 0.81 0.81 99 1009.7
20260509180740 49 231 2.0 2.0 0.07 0.81 0.81 99 1009.9
20260509180236 49 250 4.0 5.0 0.07 0.81 0.81 99 1010.0
20260509175733 49 202 3.0 3.0 0.05 0.80 0.80 99 1009.9
20260509175229 50 205 3.0 3.0 0.07 0.79 0.79 99 1009.9
20260509174725 50 165 2.0 2.0 0.07 0.79 0.79 99 1009.8
20260509174221 50 154 2.0 2.0 0.05 0.78 0.78 99 1009.8
20260509173717 50 335 1.0 1.0 0.12 0.78 0.78 99 1010.1
20260509173213 50 294 1.0 1.0 0.07 0.77 0.77 99 1009.8
20260509172709 49 354 0.0 1.0 0.07 0.76 0.76 99 1009.8
20260509172206 49 297 1.0 1.0 0.07 0.76 0.76 99 1009.9
20260509171701 49 300 2.0 2.0 0.05 0.75 0.75 99 1009.8
20260509171157 49 37 1.0 1.0 0.05 0.75 0.75 99 1009.8
20260509170654 49 336 1.0 2.0 0.07 0.74 0.74 99 1009.8
20260509170151 49 62 1.0 1.0 0.07 0.74 0.74 99 1010.0
20260509165649 49 311 1.0 1.0 0.05 0.73 0.73 99 1009.9
20260509165144 49 356 0.0 1.0 0.12 0.73 0.73 99 1010.1
20260509164641 49 350 1.0 1.0 0.07 0.72 0.72 99 1009.9
20260509164136 49 18 0.0 1.0 0.05 0.71 0.71 99 1009.9
20260509163634 49 356 1.0 1.0 0.07 0.70 0.70 99 1010.1
20260509163130 49 248 1.0 2.0 0.12 0.70 0.70 99 1010.0
20260509162627 49 327 1.0 1.0 0.05 0.69 0.69 99 1010.0
20260509162123 49 351 1.0 2.0 0.07 0.68 0.68 99 1010.2
20260509161620 49 182 1.0 1.0 0.12 0.68 0.68 99 1010.4
20260509161115 49 206 3.0 3.0 0.12 0.67 0.67 99 1010.3
20260509160611 49 61 1.0 1.0 0.07 0.66 0.66 99 1010.1
20260509160106 49 39 1.0 1.0 0.05 0.65 0.65 99 1010.3
20260509155602 49 9 0.0 0.0 0.12 0.65 0.65 99 1010.3
20260509155059 49 13 1.0 1.0 0.14 0.64 0.64 99 1010.4
20260509154555 48 316 1.0 1.0 0.12 0.63 0.63 99 1010.4
20260509154052 48 219 2.0 2.0 0.05 0.62 0.62 99 1010.8
20260509153549 48 26 1.0 1.0 0.12 0.61 0.61 99 1010.7
20260509153046 48 358 0.0 0.0 0.19 0.61 0.61 99 1010.9
20260509152542 48 82 1.0 1.0 0.07 0.59 0.59 99 1011.2
20260509152040 48 7 0.0 1.0 0.12 0.58 0.58 99 1011.0
20260509151535 48 42 1.0 1.0 0.12 0.58 0.58 99 1011.2
20260509151033 48 334 1.0 1.0 0.12 0.57 0.57 99 1011.3
20260509150531 48 348 1.0 1.0 0.12 0.56 0.56 99 1010.9
20260509150029 48 350 0.0 0.0 0.12 0.55 0.55 99 1011.1
20260509145524 48 23 1.0 1.0 0.05 0.54 0.54 99 1011.2
20260509145019 48 353 0.0 1.0 0.17 0.54 0.54 99 1011.3
20260509144517 47 27 0.0 1.0 0.19 0.53 0.53 99 1011.2
20260509144014 47 305 1.0 2.0 0.14 0.51 0.51 99 1011.4
20260509143511 48 327 1.0 1.0 0.12 0.50 0.50 99 1011.3
20260509143009 47 3 0.0 0.0 0.05 0.49 0.49 99 1011.4
20260509142504 47 299 1.0 1.0 0.12 0.48 0.48 99 1011.3
20260509141959 47 347 1.0 1.0 0.12 0.47 0.47 99 1011.2
20260509141456 47 8 0.0 0.0 0.12 0.46 0.46 99 1011.0
20260509140953 47 343 1.0 1.0 0.12 0.45 0.45 99 1011.3
20260509140449 47 355 1.0 1.0 0.12 0.44 0.44 99 1011.1
20260509135948 47 13 1.0 1.0 0.12 0.43 0.43 99 1011.3
20260509135445 47 331 1.0 1.0 0.12 0.42 0.42 99 1011.0
20260509134942 47 36 1.0 1.0 0.12 0.41 0.41 99 1010.9
20260509134440 47 29 0.0 1.0 0.07 0.40 0.40 99 1011.1
20260509133937 47 27 0.0 1.0 0.07 0.39 0.39 99 1011.3
20260509133433 47 59 1.0 2.0 0.12 0.39 0.39 99 1011.0
20260509132932 47 333 1.0 2.0 0.12 0.38 0.38 99 1011.2
20260509132429 47 322 1.0 1.0 0.12 0.37 0.37 99 1011.2
20260509131926 46 358 0.0 0.0 0.12 0.36 0.36 99 1011.3
20260509131424 47 331 1.0 1.0 0.12 0.35 0.35 99 1011.2
20260509130920 46 289 1.0 1.0 0.05 0.34 0.34 99 1011.2
20260509130415 47 5 0.0 0.0 0.07 0.33 0.33 99 1011.2
20260509125912 47 0 0.0 1.0 0.12 0.33 0.33 99 1011.1
20260509125409 46 334 0.0 1.0 0.05 0.32 0.32 99 1011.3
20260509124905 47 313 1.0 1.0 0.07 0.31 0.31 99 1011.0
20260509124402 46 332 0.0 1.0 0.00 0.30 0.30 99 1011.0
20260509123900 46 3 0.0 0.0 0.00 0.30 0.30 99 1011.0
20260509123357 46 339 0.0 0.0 0.05 0.30 0.30 99 1010.9
20260509122852 46 352 0.0 0.0 0.05 0.30 0.30 99 1010.9
20260509122350 46 346 0.0 0.0 0.00 0.29 0.29 99 1011.0
20260509121846 46 349 0.0 0.0 0.00 0.29 0.29 99 1011.1
20260509121343 46 352 0.0 0.0 0.00 0.29 0.29 99 1011.1
20260509120842 46 12 1.0 1.0 0.00 0.29 0.29 99 1011.2
20260509120339 46 345 0.0 0.0 0.00 0.29 0.29 99 1011.3
20260509115837 46 333 1.0 1.0 0.00 0.29 0.29 99 1011.3
20260509115334 46 358 0.0 0.0 0.00 0.29 0.29 99 1011.2
20260509114832 46 351 0.0 0.0 0.00 0.29 0.29 99 1011.2
20260509114330 46 351 0.0 0.0 0.00 0.29 0.29 99 1011.3
20260509113829 45 350 0.0 0.0 0.00 0.29 0.29 99 1011.1
20260509113326 45 1 0.0 0.0 0.00 0.29 0.29 99 1011.6
20260509112822 45 345 0.0 0.0 0.00 0.29 0.29 99 1011.5
20260509112320 45 345 0.0 0.0 0.00 0.29 0.29 99 1011.5
20260509111817 45 345 0.0 0.0 0.00 0.29 0.29 99 1011.5
20260509111314 45 345 0.0 0.0 0.00 0.29 0.29 99 1011.4
20260509110811 45 344 0.0 0.0 0.00 0.29 0.29 99 1011.4
20260509110307 45 343 1.0 1.0 0.00 0.29 0.29 99 1011.4
20260509105806 45 348 0.0 0.0 0.00 0.29 0.29 99 1011.1
20260509105306 45 346 0.0 0.0 0.00 0.29 0.29 99 1011.2
20260509104800 45 347 0.0 0.0 0.00 0.29 0.29 99 1011.2
20260509104256 45 348 0.0 0.0 0.00 0.29 0.29 99 1011.2
20260509103755 45 350 0.0 0.0 0.00 0.29 0.29 99 1011.2
20260509103252 45 349 0.0 0.0 0.07 0.29 0.29 99 1011.2
20260509102750 45 349 0.0 0.0 0.07 0.29 0.29 99 1011.5
20260509102247 45 349 0.0 0.0 0.05 0.28 0.28 99 1011.5
20260509101743 45 349 0.0 0.0 0.05 0.28 0.28 99 1011.5
20260509101239 45 347 0.0 0.0 0.07 0.27 0.27 99 1011.6
20260509100737 45 341 0.0 0.0 0.07 0.27 0.27 99 1011.6
20260509100234 44 0 0.0 0.0 0.00 0.26 0.26 99 1011.4
20260509095730 45 6 0.0 0.0 0.00 0.26 0.26 99 1011.4
20260509095228 44 14 0.0 0.0 0.07 0.26 0.26 99 1011.4
20260509094725 44 2 0.0 0.0 0.07 0.26 0.26 99 1011.6
20260509094222 44 356 0.0 0.0 0.07 0.26 0.26 99 1011.4
20260509093720 44 343 0.0 1.0 0.00 0.25 0.25 99 1011.5
20260509093217 44 340 0.0 1.0 0.00 0.25 0.25 99 1011.2
20260509092715 44 349 0.0 0.0 0.00 0.25 0.25 99 1011.5
20260509092213 44 322 0.0 1.0 0.00 0.25 0.25 99 1011.2
20260509091710 44 343 0.0 0.0 0.00 0.25 0.25 99 1011.6
20260509091206 44 337 0.0 1.0 0.05 0.25 0.25 99 1011.5
20260509090704 44 335 1.0 1.0 0.05 0.25 0.25 99 1011.5
20260509090201 44 343 0.0 0.0 0.05 0.25 0.25 99 1011.4
20260509085659 44 349 0.0 0.0 0.00 0.24 0.24 99 1011.6
20260509085155 43 340 0.0 1.0 0.07 0.24 0.24 99 1011.5
20260509084652 44 340 0.0 1.0 0.07 0.24 0.24 99 1011.6
20260509084149 44 349 0.0 0.0 0.00 0.23 0.23 99 1011.4
20260509083647 44 13 0.0 0.0 0.00 0.23 0.23 99 1011.3
20260509083143 44 21 1.0 1.0 0.00 0.23 0.23 99 1011.4
20260509082640 44 6 0.0 0.0 0.05 0.23 0.23 99 1011.2
20260509082137 44 2 0.0 0.0 0.12 0.23 0.23 99 1011.4
20260509081634 43 354 0.0 1.0 0.05 0.21 0.21 99 1011.6
20260509081131 43 352 0.0 0.0 0.05 0.21 0.21 99 1011.3
20260509080629 43 353 0.0 0.0 0.12 0.21 0.21 99 1011.5
20260509080127 43 354 0.0 0.0 0.07 0.20 0.20 99 1011.6
20260509075625 43 357 0.0 0.0 0.05 0.19 0.19 99 1011.7
20260509075122 43 357 0.0 0.0 0.12 0.19 0.19 99 1011.9
20260509074618 43 356 0.0 0.0 0.12 0.18 0.18 99 1011.8
20260509074115 43 5 0.0 0.0 0.12 0.17 0.17 99 1011.7
20260509073612 43 2 0.0 0.0 0.12 0.16 0.16 99 1011.8
20260509073108 43 353 0.0 1.0 0.05 0.15 0.15 99 1011.7
20260509072605 43 352 0.0 0.0 0.07 0.14 0.14 99 1011.9
20260509072102 43 353 0.0 0.0 0.14 0.14 0.14 99 1011.8
20260509071558 43 357 1.0 1.0 0.12 0.13 0.13 99 1011.7
20260509071056 43 353 0.0 0.0 0.17 0.12 0.12 99 1011.9
20260509070553 43 335 1.0 1.0 0.19 0.11 0.11 99 1012.0
20260509070049 43 340 1.0 1.0 0.12 0.09 0.09 99 1012.0
20260509065545 43 344 0.0 0.0 0.12 0.08 0.08 99 1012.2
20260509065041 42 341 0.0 1.0 0.07 0.07 0.07 99 1012.1
20260509064539 42 336 0.0 1.0 0.05 0.06 0.06 99 1012.3
20260509064037 42 343 0.0 0.0 0.12 0.06 0.06 99 1012.1